カタログに戻る

SL-8 R/B

運用中PO
NORAD 14974·ROCKET BODY·🇷🇺 Russia

打ち上げ May 17, 1984 から Plesetsk Cosmodrome

Loading…

次のパス (今後24時間)

TLE

最新Source: Space-Track

元期: Sep 14, 2026, 03:45 UTC

1 14974U 84046B   26257.15641041  .00000050  00000-0  35006-4 0  9994
2 14974  82.9388 150.4926 0043530 272.9995 250.5848 13.77179387126509

AllMySatでSL-8 R/Bをリアルタイム追跡

Download on the App Store